Regional Weather Roundup
Issued by NWS Portland, ME

Home | Current Version | Previous Version | Text Only | Print | Product List | Glossary On
Versions: 1 2 3 4 5 6 7 8 9 10 11 12 13 14 15 16 17 18 19 20 21 22 23 24 25 26 27 28 29 30 31 32 33 34 35 36 37 38 39 40 41 42 43 44 45 46 47 48 49 50
000
ASUS41 KGYX 111510
RWRGYX
WEATHER ROUNDUP FOR MAINE AND NEW HAMPSHIRE
NATIONAL WEATHER SERVICE GRAY ME
1000 AM EST THU FEB 11 2016

MEZ002-005-006-010-012-015-018-020-021-024-026-027-029-111600-
MAINE

CITY           SKY/WX    TMP DP  RH WIND       PRES   REMARKS
PORTLAND       PTSUNNY   25  13  60 CALM      29.66F
SANFORD        CLOUDY    27  12  54 W9        29.66R
BAR HARBOR     CLOUDY    28  19  69 N6        29.63R
WISCASSET      CLOUDY    26  13  57 VRB3      29.67S
ROCKLAND       PTSUNNY   24  15  68 NW5       29.65R
FRYEBURG       CLOUDY    26   9  48 NW5       29.62S
LEWISTONAUBURN MOSUNNY   23  12  63 CALM      29.64S
AUGUSTA        MOSUNNY   23  10  57 W7        29.63F
WATERVILLE     MOSUNNY   30  14  51 N7        29.61R
BANGOR         CLOUDY    23  14  68 NW5       29.63R
GREENVILLE       N/A     18  11  74 NW8       29.51S
MILLINOCKET    CLOUDY    22  13  68 CALM      29.60S
HOULTON        MOSUNNY   18   8  65 N8        29.57F
PRESQUE ISLE   CLOUDY    21  10  62 N6        29.59R
FRENCHVILLE    SUNNY     12   5  73 NW7       29.53F
CARIBOU        CLOUDY    17   9  70 NW6       29.55F
$$

NHZ002-005-008-009-011-012-014-111600-
NEW HAMPSHIRE

CITY           SKY/WX    TMP DP  RH WIND       PRES   REMARKS
PORTSMOUTH     PTSUNNY   27  15  62 W10       29.67S WCI  17
ROCHESTER      CLOUDY    27  14  58 VRB7      29.66R
NASHUA         CLOUDY    25  18  74 W9        29.71S
MANCHESTER     PTSUNNY   26  10  50 W15G22    29.68S WCI  14
CONCORD        CLOUDY    25  11  55 NW16G22   29.68S WCI  12
LACONIA        PTSUNNY   25  12  58 W8        29.66R
PLYMOUTH       LGT SNOW  23  15  70 W9        29.66R
BERLIN         CLOUDY    20  10  65 W12G20    29.60R WCI   8
WHITEFIELD     CLOUDY    19   8  62 W13       29.62S WCI   6
JAFFREY        CLOUDY    19  10  68 VRB6      29.66S
KEENE          MOSUNNY   21   9  58 W9        29.72R
LEBANON        CLOUDY    23   5  46 W12       29.68R WCI  12
MT WASHINGTON  SNOWSHWR  -2  -2 100 W24         N/A  VSB 1/16WCI -27
$$

VTZ005-007-008-111600-
VERMONT

CITY           SKY/WX    TMP DP  RH WIND       PRES   REMARKS
ST JOHNSBURY     N/A     20   8  60 MISG      29.65S
MONTPELIER     CLOUDY    17   8  67 N8        29.67S
BURLINGTON     PTSUNNY   20   5  52 NW14      29.73S WCI   7
$$

MAZ007-012-024-CTZ003-RIZ002-NYZ038-NYZ072-111600-
SOUTHERN NEW ENGLAND AND NY

CITY           SKY/WX    TMP DP  RH WIND       PRES   REMARKS
BOSTON         LGT SNOW  25  17  72 W17       29.72R WCI  12
WORCESTER      LGT SNOW  19  11  70 W18       29.67R WCI   4
NANTUCKET      CLOUDY    31  19  61 NW15      29.71S
PROVIDENCE     FLURRIES  26  14  60 W14       29.76R WCI  14
HARTFORD       PTSUNNY   22   5  48 NW17      29.78S WCI   8
ALBANY         PTSUNNY   20   2  45 W17       29.81S WCI   5
NEW YORK CITY  MOSUNNY   26   0  32 W23G33    29.91R WCI  11
$$

ANZ081-ANZ082-ANZ150-NHZ014-MEZ023>029-111600-
COASTAL MARINE OBSERVATIONS

STATION/POSITION TIME  TEMP    WIND        PRES    WAVE
                       AIR SEA DIR/SP/G            HT/PER
                 (UTC) (F)     (DEG/KT/KT) (MB)    (FT/S)
JEFFREYS LEDGE   1404      43                N/A     5/11
CASHES LEDGE BUO 1350   30 43  320/ 14/ 17 1003.6    5/12
$$

.............KEY..............
   WCI - WIND CHILL
   TC  - TEMPERATURE IN CELSIUS
   VSB - VISIBILITY IN MILES
   HX  - HEAT INDEX
   FAIR- INDICATES FEW OR NO CLOUDS BELOW 12,000 FT, WITH NO
         SIGNIFICANT WEATHER AND/OR OBSTRUCTIONS TO VISIBILITY.





USA.gov is the U.S. government's official web portal to all federal, state and local government web resources and services.